W0WC Weather Reports


time (UTC)temp
F
wind
direction
speed
knots
gust
knots
rain 1hr
in
rain 24hr
in
rain mn
in
humidity
%
barometer
mb
20260509061451 58 292 0.9 1.7 0.00 0.00 0.00 95 1011.0
20260509060949 58 100 1.7 1.7 0.00 0.00 0.00 95 1011.0
20260509060446 58 61 1.7 1.7 0.00 0.00 0.00 96 1011.0
20260509055942 57 168 0.9 0.9 0.00 0.00 0.00 96 1011.1
20260509055437 56 107 0.9 0.9 0.00 0.00 0.00 96 1011.1
20260509054933 56 10 0.0 0.0 0.00 0.00 0.00 95 1011.1
20260509054430 56 29 0.0 0.0 0.00 0.00 0.00 95 1011.1
20260509053929 56 33 0.0 0.0 0.00 0.00 0.00 95 1011.2
20260509053426 56 19 0.0 0.0 0.00 0.00 0.00 95 1011.1
20260509052923 56 26 0.0 0.0 0.00 0.00 0.00 94 1011.1
20260509052421 56 4 0.0 0.0 0.00 0.00 0.00 94 1011.4
20260509051919 57 14 0.0 0.0 0.00 0.00 0.00 94 1011.5
20260509051416 57 8 0.0 0.0 0.00 0.00 0.00 93 1011.4
20260509050913 57 13 0.0 0.0 0.00 0.00 0.00 93 1011.6
20260509050410 57 8 0.0 0.0 0.00 0.00 0.00 93 1011.6
20260509045907 57 15 0.0 0.0 0.00 0.00 0.00 93 1011.4
20260509045403 58 10 0.0 0.0 0.00 0.00 0.00 93 1011.4
20260509044901 58 11 0.0 0.0 0.00 0.00 0.00 93 1011.5
20260509044358 58 8 0.0 0.0 0.00 0.00 0.00 92 1011.3
20260509043855 58 29 0.0 0.0 0.00 0.00 0.00 92 1011.4
20260509043351 58 24 0.0 0.0 0.00 0.00 0.00 92 1011.5
20260509042847 58 83 0.0 0.0 0.00 0.00 0.00 92 1011.3
20260509042343 59 2 0.0 0.0 0.00 0.00 0.00 92 1011.5
20260509041840 59 318 0.0 0.0 0.00 0.00 0.00 92 1011.4
20260509041337 59 19 0.0 0.0 0.00 0.00 0.00 91 1011.4
20260509040835 59 0 0.0 0.0 0.00 0.00 0.00 91 1011.4
20260509040333 59 8 0.0 0.0 0.00 0.00 0.00 90 1011.5
20260509035829 59 0 0.0 0.0 0.00 0.00 0.00 90 1011.3
20260509035327 59 359 0.0 0.0 0.00 0.00 0.00 90 1011.1
20260509034822 59 12 0.0 0.0 0.00 0.00 0.00 89 1011.1
20260509034321 60 34 0.0 0.0 0.00 0.00 0.00 89 1010.9
20260509033817 60 14 0.0 0.0 0.00 0.00 0.00 88 1010.7
20260509033315 60 4 0.0 0.0 0.00 0.00 0.00 88 1011.0
20260509032811 60 4 0.0 0.0 0.00 0.00 0.00 87 1011.0
20260509032308 60 6 0.0 0.0 0.00 0.00 0.00 86 1010.9
20260509031806 61 6 0.0 0.0 0.00 0.00 0.00 86 1010.9
20260509031303 61 6 0.0 0.0 0.00 0.00 0.00 85 1010.9
20260509030801 61 3 0.0 0.0 0.00 0.00 0.00 85 1010.7
20260509030259 61 5 0.0 0.0 0.00 0.00 0.00 84 1010.6
20260509025755 62 7 0.0 0.0 0.00 0.00 0.00 84 1010.7
20260509025250 62 5 0.0 0.0 0.00 0.00 0.00 83 1010.5
20260509024746 62 6 0.0 0.0 0.00 0.00 0.00 83 1010.5
20260509024242 62 9 0.0 0.0 0.00 0.00 0.00 82 1010.5
20260509023740 62 352 0.0 0.0 0.00 0.00 0.00 81 1010.4
20260509023237 63 4 0.0 0.0 0.00 0.00 0.00 80 1010.3
20260509022733 63 354 0.0 0.0 0.00 0.00 0.00 79 1010.1
20260509022231 64 2 0.0 0.0 0.00 0.00 0.00 78 1009.9
20260509021727 64 358 0.0 0.0 0.00 0.00 0.00 77 1009.8
20260509021225 64 19 0.0 0.0 0.00 0.00 0.00 76 1009.8
20260509020723 64 317 1.7 1.7 0.00 0.00 0.00 76 1010.0
20260509020219 64 322 0.0 0.9 0.00 0.00 0.00 74 1009.7
20260509015718 64 350 0.9 0.9 0.00 0.00 0.00 73 1009.5
20260509015216 65 359 2.6 3.5 0.00 0.00 0.00 72 1009.2
20260509014712 65 321 5.2 6.1 0.00 0.00 0.00 71 1009.0
20260509014209 65 345 0.9 0.9 0.00 0.00 0.00 70 1008.6
20260509013705 65 9 0.9 0.9 0.00 0.00 0.00 69 1008.2
20260509013201 66 10 0.0 0.0 0.00 0.00 0.00 67 1008.3
20260509012658 66 6 0.9 0.9 0.00 0.00 0.00 66 1008.2
20260509012154 67 6 0.0 0.0 0.00 0.00 0.00 65 1007.9
20260509011652 67 346 0.9 0.9 0.00 0.00 0.00 63 1007.7
20260509011149 67 230 1.7 3.5 0.00 0.00 0.00 63 1007.8
20260509010647 68 19 0.0 0.0 0.00 0.00 0.00 63 1007.8
20260509010143 68 184 1.7 2.6 0.00 0.00 0.00 63 1007.6
20260509005641 68 202 2.6 2.6 0.00 0.00 0.00 63 1007.7
20260509005137 68 217 3.5 5.2 0.00 0.00 0.00 63 1007.6
20260509004633 68 9 1.7 2.6 0.00 0.00 0.00 63 1007.3
20260509004130 68 304 1.7 1.7 0.00 0.00 0.00 65 1007.2
20260509003629 67 296 0.9 0.9 0.00 0.00 0.00 66 1007.2
20260509003126 67 223 4.3 6.1 0.00 0.00 0.00 67 1007.3
20260509002623 67 200 3.5 5.2 0.00 0.00 0.00 68 1007.6
20260509002120 68 187 5.2 7.0 0.00 0.00 0.00 67 1007.3
20260509001618 68 166 2.6 2.6 0.00 0.00 0.00 68 1007.8
20260509001113 68 209 2.6 2.6 0.00 0.00 0.00 67 1008.4
20260509000612 68 217 4.3 6.1 0.00 0.00 0.00 67 1008.1
20260509000108 68 120 3.5 3.5 0.00 0.00 0.00 65 1008.2
20260508235606 69 239 1.7 2.6 0.00 0.00 0.00 63 1008.0
20260508235102 69 202 2.6 3.5 0.00 0.00 0.00 62 1007.8
20260508234559 69 194 3.5 5.2 0.00 0.00 0.00 61 1007.3
20260508234056 69 182 3.5 3.5 0.00 0.00 0.00 62 1007.5
20260508233555 69 71 1.7 2.6 0.00 0.00 0.00 63 1007.2
20260508233052 69 108 3.5 5.2 0.00 0.00 0.00 62 1007.1
20260508232549 69 176 3.5 5.2 0.00 0.00 0.00 63 1007.0
20260508232046 69 67 1.7 2.6 0.00 0.00 0.00 63 1007.0
20260508231544 69 183 3.5 5.2 0.00 0.00 0.00 63 1007.0
20260508231041 69 222 3.5 5.2 0.00 0.00 0.00 64 1007.6
20260508230537 69 152 3.5 3.5 0.00 0.00 0.00 64 1007.8
20260508230034 69 112 2.6 2.6 0.00 0.00 0.00 65 1007.9
20260508225531 69 168 1.7 2.6 0.00 0.00 0.00 66 1007.9
20260508225028 69 246 3.5 3.5 0.00 0.00 0.00 64 1008.0
20260508224526 69 176 3.5 3.5 0.00 0.00 0.00 65 1008.2
20260508224023 69 179 3.5 5.2 0.00 0.00 0.00 66 1008.2
20260508223521 69 193 2.6 3.5 0.00 0.00 0.00 65 1008.7
20260508223018 69 178 1.7 1.7 0.00 0.00 0.00 65 1008.9
20260508222515 69 255 1.7 1.7 0.00 0.00 0.00 65 1009.2
20260508222012 69 219 1.7 2.6 0.00 0.00 0.00 64 1009.0
20260508221508 69 276 2.6 2.6 0.00 0.00 0.00 62 1009.1
20260508221004 70 264 2.6 2.6 0.00 0.00 0.00 61 1009.3
20260508220500 70 335 1.7 2.6 0.00 0.00 0.00 61 1009.5
20260508215956 71 311 2.6 3.5 0.00 0.00 0.00 59 1009.4
20260508215454 72 98 3.5 3.5 0.00 0.00 0.00 58 1009.4
20260508214950 73 241 1.7 1.7 0.00 0.00 0.00 56 1009.6
20260508214448 73 336 1.7 1.7 0.00 0.00 0.00 53 1009.3
20260508213944 74 356 0.9 0.9 0.00 0.00 0.00 52 1009.0
20260508213442 74 26 0.0 0.0 0.00 0.00 0.00 51 1009.1
20260508212937 74 5 0.0 0.0 0.00 0.00 0.00 50 1009.0
20260508212434 74 6 0.0 0.9 0.00 0.00 0.00 49 1009.3
20260508211930 75 2 1.7 1.7 0.00 0.00 0.00 47 1009.2
20260508211425 75 301 2.6 3.5 0.00 0.00 0.00 45 1009.2
20260508210923 75 281 1.7 2.6 0.00 0.00 0.00 43 1009.1
20260508210419 75 186 4.3 6.1 0.00 0.00 0.00 43 1009.1
20260508205915 75 253 3.5 5.2 0.00 0.00 0.00 45 1008.9
20260508205413 75 200 7.0 8.7 0.00 0.00 0.00 43 1008.7
20260508204909 75 131 3.5 3.5 0.00 0.00 0.00 44 1009.0
20260508204407 76 165 1.7 2.6 0.00 0.00 0.00 44 1008.9
20260508203902 76 258 5.2 8.7 0.00 0.00 0.00 43 1009.1
20260508203358 77 24 1.7 2.6 0.00 0.00 0.00 42 1008.9
20260508202854 77 209 2.6 3.5 0.00 0.00 0.00 43 1009.1
20260508202351 77 213 4.3 6.1 0.00 0.00 0.00 42 1009.0
20260508201849 77 117 2.6 3.5 0.00 0.00 0.00 42 1009.2
20260508201345 77 203 2.6 2.6 0.00 0.00 0.00 41 1009.4
20260508200842 78 215 6.1 7.0 0.00 0.00 0.00 40 1009.3
20260508200339 79 171 5.2 7.0 0.00 0.00 0.00 38 1009.4
20260508195834 78 194 0.9 1.7 0.00 0.00 0.00 42 1009.2
20260508195331 79 194 4.3 6.1 0.00 0.00 0.00 40 1009.3
20260508194827 79 244 3.5 3.5 0.00 0.00 0.00 40 1009.6
20260508194325 79 141 5.2 7.0 0.00 0.00 0.00 38 1009.6
20260508193821 78 202 1.7 5.2 0.00 0.00 0.00 41 1009.6
20260508193319 78 217 5.2 8.7 0.00 0.00 0.00 40 1010.1
20260508192814 78 201 3.5 6.1 0.00 0.00 0.00 39 1009.7
20260508192312 78 210 5.2 7.0 0.00 0.00 0.00 40 1009.8
20260508191809 78 198 7.8 8.7 0.00 0.00 0.00 39 1009.8
20260508191306 77 241 3.5 5.2 0.00 0.00 0.00 40 1009.8
20260508190803 77 190 5.2 7.0 0.00 0.00 0.00 40 1010.0
20260508190259 77 266 4.3 7.0 0.00 0.00 0.00 41 1010.0
20260508185756 77 274 1.7 5.2 0.00 0.00 0.00 43 1010.1
20260508185253 77 213 1.7 2.6 0.00 0.00 0.00 42 1010.3
20260508184750 77 94 3.5 6.1 0.00 0.00 0.00 43 1010.4
20260508184248 77 35 2.6 5.2 0.00 0.00 0.00 42 1010.3
20260508183744 76 312 4.3 6.1 0.00 0.00 0.00 42 1010.3
20260508183241 76 226 4.3 6.1 0.00 0.00 0.00 43 1010.3
20260508182737 77 224 5.2 7.0 0.00 0.00 0.00 41 1010.4
20260508182234 77 195 5.2 7.0 0.00 0.00 0.00 41 1010.7
20260508181729 76 288 3.5 6.1 0.00 0.00 0.00 44 1010.6
20260508181227 76 225 8.7 11.3 0.00 0.00 0.00 42 1010.9
20260508180723 76 172 8.7 11.3 0.00 0.00 0.00 43 1011.0
20260508180220 76 271 5.2 7.8 0.00 0.00 0.00 44 1011.1
20260508175717 77 169 6.1 7.8 0.00 0.00 0.00 43 1011.0
20260508175213 76 204 6.1 7.0 0.00 0.00 0.00 43 1011.0
20260508174712 75 359 2.6 3.5 0.00 0.00 0.00 44 1011.0
20260508174208 75 212 3.5 5.2 0.00 0.00 0.00 44 1011.0
20260508173704 75 207 5.2 7.8 0.00 0.00 0.00 45 1010.9
20260508173200 75 181 7.0 7.8 0.00 0.00 0.00 44 1011.2
20260508172658 74 197 5.2 6.1 0.00 0.00 0.00 45 1011.3
20260508172155 74 204 4.3 5.2 0.00 0.00 0.00 46 1011.2
20260508171651 73 102 4.3 5.2 0.00 0.00 0.00 48 1011.3
20260508171147 74 208 8.7 9.6 0.00 0.00 0.00 46 1011.4
20260508170644 73 30 3.5 6.1 0.00 0.00 0.00 49 1011.7
20260508170142 72 167 1.7 3.5 0.00 0.00 0.00 50 1011.6
20260508165639 72 179 7.0 9.6 0.00 0.00 0.00 49 1011.9
20260508165136 72 193 6.1 7.8 0.00 0.00 0.00 50 1011.9
20260508164632 72 358 1.7 3.5 0.00 0.00 0.00 51 1012.0
20260508164129 72 219 4.3 8.7 0.00 0.00 0.00 52 1012.1
20260508163627 72 101 2.6 3.5 0.00 0.00 0.00 51 1012.1
20260508163124 71 196 3.5 3.5 0.00 0.00 0.00 54 1012.1
20260508162620 71 223 5.2 6.1 0.00 0.00 0.00 52 1012.3
20260508162118 71 146 6.1 7.8 0.00 0.00 0.00 54 1012.3
20260508161614 70 189 5.2 7.8 0.00 0.00 0.00 55 1012.7
20260508161112 70 181 8.7 12.2 0.00 0.00 0.00 54 1012.6
20260508160610 70 221 7.0 13.0 0.00 0.00 0.00 55 1012.5
20260508160107 69 174 7.0 13.9 0.00 0.00 0.00 56 1012.7
20260508155604 69 208 4.3 7.0 0.00 0.00 0.00 57 1012.8
20260508155101 69 210 5.2 7.0 0.00 0.00 0.00 57 1012.8
20260508154558 69 285 4.3 6.1 0.00 0.00 0.00 58 1013.1
20260508154055 68 203 2.6 3.5 0.00 0.00 0.00 60 1013.1
20260508153551 68 136 4.3 6.1 0.00 0.00 0.00 59 1013.1
20260508153047 67 113 5.2 7.0 0.00 0.00 0.00 61 1013.1
20260508152545 68 194 7.8 9.6 0.00 0.00 0.00 59 1013.2
20260508152040 67 184 2.6 3.5 0.00 0.00 0.00 61 1013.3
20260508151537 67 136 7.0 12.2 0.00 0.00 0.00 61 1013.3
20260508151034 67 126 5.2 7.8 0.00 0.00 0.00 59 1013.4
20260508150531 67 219 6.1 7.8 0.00 0.00 0.00 60 1013.3
20260508150027 67 199 5.2 6.1 0.00 0.00 0.00 60 1013.4
20260508145524 66 223 6.1 8.7 0.00 0.00 0.00 60 1013.5
20260508145020 66 210 7.0 8.7 0.00 0.00 0.00 61 1013.3
20260508144518 66 236 2.6 5.2 0.00 0.00 0.00 63 1013.3
20260508144015 65 208 4.3 6.1 0.00 0.00 0.00 63 1013.3
20260508143513 65 215 3.5 6.1 0.00 0.00 0.00 64 1013.3
20260508143009 65 142 6.1 9.6 0.00 0.00 0.00 63 1013.3
20260508142506 65 195 3.5 3.5 0.00 0.00 0.00 64 1013.5
20260508142003 64 2 3.5 6.1 0.00 0.00 0.00 65 1013.7
20260508141459 64 185 1.7 2.6 0.00 0.00 0.00 66 1013.8
20260508140957 64 190 2.6 3.5 0.00 0.00 0.00 66 1013.8
20260508140454 63 161 2.6 3.5 0.00 0.00 0.00 67 1013.7
20260508135949 62 253 3.5 5.2 0.00 0.00 0.00 68 1014.0
20260508135446 62 208 7.8 12.2 0.00 0.00 0.00 68 1014.2
20260508134942 62 245 5.2 7.0 0.00 0.00 0.00 69 1013.9
20260508134439 61 158 3.5 3.5 0.00 0.00 0.00 69 1014.1
20260508133936 61 273 5.2 8.7 0.00 0.00 0.00 69 1014.0
20260508133434 60 235 5.2 7.8 0.00 0.00 0.00 69 1014.1
20260508132930 60 220 7.0 7.8 0.00 0.00 0.00 69 1014.2
20260508132428 60 175 3.5 7.0 0.00 0.00 0.00 69 1014.1
20260508131925 60 111 7.0 8.7 0.00 0.00 0.00 69 1014.0
20260508131420 60 195 4.3 7.8 0.00 0.00 0.00 69 1014.1
20260508130917 59 42 3.5 6.1 0.00 0.00 0.00 70 1014.0
20260508130414 59 190 4.3 6.1 0.00 0.00 0.00 69 1013.8
20260508125910 59 189 2.6 3.5 0.00 0.00 0.00 69 1013.7
20260508125406 59 201 7.0 8.7 0.00 0.00 0.00 69 1013.9
20260508124904 59 180 7.0 7.8 0.00 0.00 0.00 69 1014.0
20260508124401 58 211 3.5 5.2 0.00 0.00 0.00 69 1013.8
20260508123859 58 197 2.6 3.5 0.00 0.00 0.00 69 1013.8
20260508123357 58 202 1.7 2.6 0.00 0.00 0.00 70 1013.7
20260508122853 57 192 3.5 5.2 0.00 0.00 0.00 70 1013.5
20260508122350 57 111 4.3 6.1 0.00 0.00 0.00 69 1013.4
20260508121848 57 201 8.7 12.2 0.00 0.00 0.00 69 1013.6
20260508121346 57 179 2.6 5.2 0.00 0.00 0.00 69 1013.4
20260508120843 57 168 0.9 1.7 0.00 0.00 0.00 68 1013.6
20260508120341 57 179 9.6 11.3 0.00 0.00 0.00 68 1013.7
20260508115838 57 204 5.2 7.0 0.00 0.00 0.00 67 1013.4
20260508115335 57 182 3.5 7.0 0.00 0.00 0.00 66 1013.5
20260508114832 57 172 5.2 7.0 0.00 0.00 0.00 66 1013.5
20260508114329 57 206 6.1 8.7 0.00 0.00 0.00 65 1013.1
20260508113826 57 202 3.5 5.2 0.00 0.00 0.00 64 1013.0
20260508113324 57 195 5.2 6.1 0.00 0.00 0.00 64 1013.0
20260508112820 57 93 4.3 5.2 0.00 0.00 0.00 63 1013.0
20260508112317 57 208 3.5 3.5 0.00 0.00 0.00 63 1012.7
20260508111813 57 186 4.3 7.0 0.00 0.00 0.00 63 1012.7
20260508111311 57 152 5.2 7.0 0.00 0.00 0.00 63 1012.8
20260508110808 57 192 6.1 7.8 0.00 0.00 0.00 63 1012.8
20260508110306 57 173 6.1 7.8 0.00 0.00 0.00 64 1012.7
20260508105805 57 178 4.3 6.1 0.00 0.00 0.00 64 1012.6
20260508105305 57 188 5.2 6.1 0.00 0.00 0.00 64 1012.6
20260508104759 57 161 5.2 6.1 0.00 0.00 0.00 64 1012.7
20260508104256 57 178 4.3 6.1 0.00 0.00 0.00 64 1012.5
20260508103753 57 193 5.2 6.1 0.00 0.00 0.00 63 1012.7
20260508103250 57 165 3.5 5.2 0.00 0.00 0.00 63 1012.6
20260508102747 57 70 5.2 6.1 0.00 0.00 0.00 63 1012.6
20260508102246 57 194 1.7 2.6 0.00 0.00 0.00 62 1012.6
20260508101742 57 207 3.5 5.2 0.00 0.00 0.00 62 1012.6
20260508101240 57 189 5.2 7.0 0.00 0.00 0.00 62 1012.6
20260508100738 58 175 5.2 7.0 0.00 0.00 0.00 61 1012.5
20260508100235 57 182 7.0 8.7 0.00 0.00 0.00 61 1012.5
20260508095731 57 150 3.5 3.5 0.00 0.00 0.00 61 1012.7
20260508095229 57 112 1.7 1.7 0.00 0.00 0.00 61 1012.7
20260508094725 58 154 2.6 3.5 0.00 0.00 0.00 61 1012.7
20260508094222 58 239 4.3 6.1 0.00 0.00 0.00 61 1012.6
20260508093720 58 213 4.3 6.1 0.00 0.00 0.00 60 1012.8
20260508093217 58 158 1.7 2.6 0.00 0.00 0.00 60 1012.7
20260508092714 58 140 1.7 2.6 0.00 0.00 0.00 60 1012.6
20260508092212 58 213 3.5 5.2 0.00 0.00 0.00 60 1012.6
20260508091710 58 231 3.5 5.2 0.00 0.00 0.00 60 1012.7
20260508091207 58 151 2.6 3.5 0.00 0.00 0.00 60 1012.5
20260508090704 58 184 5.2 7.0 0.00 0.00 0.00 60 1012.5
20260508090202 58 163 3.5 3.5 0.00 0.00 0.00 60 1012.6
20260508085657 58 150 3.5 3.5 0.00 0.00 0.00 60 1012.5
20260508085155 58 211 5.2 7.0 0.00 0.00 0.00 59 1012.6
20260508084651 58 142 1.7 2.6 0.00 0.00 0.00 59 1012.8
20260508084148 58 222 2.6 2.6 0.00 0.00 0.00 59 1012.8
20260508083646 58 190 5.2 7.8 0.00 0.00 0.00 59 1012.7
20260508083143 58 166 1.7 1.7 0.00 0.00 0.00 59 1012.7
20260508082638 58 180 1.7 2.6 0.00 0.00 0.00 60 1012.9
20260508082136 58 187 5.2 6.1 0.00 0.00 0.00 60 1013.0
20260508081633 58 184 2.6 2.6 0.00 0.00 0.00 60 1012.9
20260508081129 58 216 3.5 3.5 0.00 0.00 0.00 60 1013.0
20260508080627 58 181 5.2 7.0 0.00 0.00 0.00 60 1013.1
20260508080125 57 236 3.5 3.5 0.00 0.00 0.00 60 1013.1
20260508075621 57 138 2.6 3.5 0.00 0.00 0.00 61 1013.3
20260508075118 57 167 3.5 6.1 0.00 0.00 0.00 61 1013.1
20260508074616 57 191 5.2 7.8 0.00 0.00 0.00 61 1013.1
20260508074113 57 216 5.2 6.1 0.00 0.00 0.00 61 1013.2
20260508073610 57 200 3.5 3.5 0.00 0.00 0.00 61 1013.2
20260508073108 57 126 2.6 3.5 0.00 0.00 0.00 61 1013.3
20260508072603 57 188 4.3 6.1 0.00 0.00 0.00 61 1013.3
20260508072100 57 84 2.6 3.5 0.00 0.00 0.00 61 1013.5
20260508071558 57 162 3.5 3.5 0.00 0.00 0.00 61 1013.5
20260508071056 57 214 2.6 5.2 0.00 0.00 0.00 61 1013.5
20260508070553 57 195 3.5 3.5 0.00 0.00 0.00 61 1013.4
20260508070052 57 191 2.6 2.6 0.00 0.00 0.00 61 1013.5
20260508065549 57 191 1.7 1.7 0.00 0.00 0.00 62 1013.5
20260508065047 57 117 1.7 1.7 0.00 0.00 0.00 62 1013.7
20260508064544 57 131 2.6 3.5 0.00 0.00 0.00 62 1013.6
20260508064042 57 127 0.9 2.6 0.00 0.00 0.00 62 1013.7
20260508063539 57 136 5.2 7.0 0.00 0.00 0.00 63 1013.7
20260508063037 57 87 1.7 2.6 0.00 0.00 0.00 63 1013.6
20260508062534 57 153 3.5 3.5 0.00 0.00 0.00 63 1013.8
20260508062031 57 89 3.5 3.5 0.00 0.00 0.00 62 1013.8